Weather History for Pascagoula, MS

Change the Weather History Date:

Monday, November 5, 2012

  Actual Average Record
Temperature  
Mean Temperature 58 °F -  
Max Temperature 70 °F 71 °F 85 °F (1975)
Min Temperature 46 °F 50 °F 27 °F (1991)
Degree Days  
Heating Degree Days 7    
Growing Degree Days 8 (Base 50)    
Moisture  
Dew Point 51 °F    
Average Humidity 85    
Maximum Humidity 100    
Minimum Humidity 36    
Precipitation  
Precipitation 0.31 in - - ()
Sea Level Pressure  
Sea Level Pressure 30.01 in    
Wind  
Wind Speed 2 mph (North)    
Max Wind Speed 9 mph    
Max Gust Speed 22 mph    
Visibility 6 miles    
Events Fog , Rain , Thunderstorm    
Averages and records for this station are not official NWS values.
T = Trace of Precipitation, MM = Missing Value Source: NWS Daily Summary

Daily Weather History Graph

Daily Weather History Graph

Search for Another Location

Airport:

Trip Planner

Search our weather history database for the weather conditions in past years. The results will help you decide how hot, cold, wet, or windy it might be!

Date:

Astronomy

Nov. 05, 2012 Rise Set
Actual Time 6:12 AM CST 5:02 PM CST
Civil Twilight 5:47 AM CST 5:27 PM CST
Nautical Twilight 5:18 AM CST 5:56 PM CST
Astronomical Twilight 4:50 AM CST 6:24 PM CST
Moon 10:39 PM CST (11/5) 11:30 AM CST (11/5)
Length of Visible Light 11h 40m
Length of Day
10h 50m
Waning Gibbous, 62% of the Moon is Illuminated
Nov 5
Waning Gibbous
Nov 6
Last Quarter
Nov 13
New
Nov 20
First Quarter
Nov 28
Full

Hourly Weather History & Observations

Time (CST) Temp. Dew Point Humidity Pressure Visibility Wind Dir Wind Speed Gust Speed Precip Events Conditions
12:53 AM 55.0 °F 54.0 °F 96% 30.07 in 9.0 mi North 3.5 mph - N/A   Clear
1:51 AM 51.8 °F 50.0 °F 94% 30.07 in 2.0 mi Calm Calm - N/A   Clear
1:53 AM 52.0 °F 50.0 °F 93% 30.07 in 1.8 mi Calm Calm - N/A   Clear
2:11 AM 51.8 °F 51.8 °F 100% 30.07 in 3.0 mi Calm Calm - N/A   Clear
2:27 AM 51.8 °F 51.8 °F 100% 30.07 in 0.5 mi Calm Calm - N/A Fog Fog
2:42 AM 48.2 °F 48.2 °F 100% 30.06 in 2.0 mi North 3.5 mph - N/A   Clear
2:53 AM 48.9 °F 48.0 °F 97% 30.07 in 1.8 mi Calm Calm - N/A   Clear
3:08 AM 51.8 °F 50.0 °F 94% 30.06 in 4.0 mi Calm Calm - N/A   Clear
3:53 AM 50.0 °F 48.9 °F 96% 30.07 in 6.0 mi Calm Calm - N/A   Clear
4:21 AM 48.2 °F 48.2 °F 100% 30.06 in 1.8 mi Calm Calm - N/A   Clear
4:42 AM 48.2 °F 48.2 °F 100% 30.07 in 0.5 mi Calm Calm - N/A Fog Fog
4:53 AM 50.0 °F 48.0 °F 93% 30.08 in 0.8 mi Calm Calm - N/A   Clear
5:09 AM 48.2 °F 48.2 °F 100% 30.07 in 2.0 mi Calm Calm - N/A   Clear
5:22 AM 46.4 °F 46.4 °F 100% 30.08 in 1.5 mi Calm Calm - N/A   Clear
5:49 AM 48.2 °F 46.4 °F 93% 30.08 in 1.5 mi North 3.5 mph - N/A   Clear
5:53 AM 48.0 °F 46.0 °F 93% 30.08 in 0.8 mi Calm Calm - N/A   Clear
6:07 AM 48.2 °F 48.2 °F 100% 30.08 in 7.0 mi Calm Calm - N/A   Clear
6:53 AM 52.0 °F 50.0 °F 93% 30.09 in 9.0 mi Calm Calm - N/A   Overcast
7:53 AM 55.9 °F 50.0 °F 80% 30.09 in 10.0 mi NNE 4.6 mph - N/A   Clear
8:53 AM 60.1 °F 48.0 °F 64% 30.10 in 10.0 mi NE 3.5 mph - N/A   Partly Cloudy
9:53 AM 64.9 °F 46.0 °F 50% 30.08 in 10.0 mi East 8.1 mph - N/A   Clear
10:53 AM 69.1 °F 45.0 °F 42% 30.06 in 10.0 mi East 5.8 mph - N/A   Clear
11:53 AM 70.0 °F 43.0 °F 38% 30.03 in 10.0 mi South 4.6 mph - N/A   Mostly Cloudy
12:53 PM 69.1 °F 41.0 °F 36% 30.01 in 10.0 mi South 5.8 mph - N/A   Mostly Cloudy
1:53 PM 69.1 °F 45.0 °F 42% 29.99 in 10.0 mi South 4.6 mph - N/A   Mostly Cloudy
2:53 PM 69.1 °F 46.9 °F 45% 29.98 in 10.0 mi Variable 4.6 mph - N/A   Mostly Cloudy
3:53 PM 66.0 °F 51.1 °F 59% 30.01 in 10.0 mi West 5.8 mph - N/A Thunderstorm Overcast
4:20 PM 60.8 °F 55.4 °F 82% 29.95 in 8.0 mi SE 9.2 mph - 0.12 in Rain Light Rain
4:53 PM 60.1 °F 55.0 °F 83% 29.97 in 10.0 mi Calm Calm - 0.13 in   Overcast
5:53 PM 57.0 °F 55.0 °F 93% 29.97 in 10.0 mi Calm Calm - 0.00 in   Mostly Cloudy
6:36 PM 57.2 °F 55.4 °F 94% 29.96 in 10.0 mi Calm Calm - N/A Thunderstorm Overcast
6:53 PM 59.0 °F 53.1 °F 81% 29.96 in 10.0 mi Calm Calm - N/A   Overcast
7:53 PM 57.0 °F 54.0 °F 89% 29.95 in 10.0 mi Calm Calm - N/A   Partly Cloudy
8:53 PM 55.9 °F 54.0 °F 93% 29.96 in 9.0 mi Calm Calm - N/A   Scattered Clouds
9:53 PM 55.9 °F 54.0 °F 93% 29.91 in 10.0 mi Calm Calm - N/A   Clear
10:53 PM 55.9 °F 55.0 °F 97% 29.90 in 9.0 mi Calm Calm - N/A   Mostly Cloudy
11:05 PM 57.2 °F 53.6 °F 88% 29.91 in 9.0 mi NNW 8.1 mph - N/A Thunderstorm Thunderstorm
11:18 PM 57.2 °F 53.6 °F 88% 29.94 in 4.0 mi NW 9.2 mph 21.9 mph 0.07 in Rain , Thunderstorm Heavy Thunderstorms and Rain
11:23 PM 57.2 °F 55.4 °F 94% 29.92 in 1.8 mi NW 4.6 mph 21.9 mph 0.15 in Rain , Thunderstorm Heavy Thunderstorms and Rain
11:30 PM 57.2 °F 55.4 °F 94% 29.91 in 2.0 mi Calm Calm - 0.18 in Rain , Thunderstorm Thunderstorms and Rain
11:33 PM 57.2 °F 55.4 °F 94% 29.91 in 3.0 mi Calm Calm - 0.18 in Rain , Thunderstorm Light Rain
11:40 PM 57.2 °F 55.4 °F 94% 29.92 in 7.0 mi NNW 5.8 mph - 0.18 in Rain Light Rain
11:53 PM 57.0 °F 55.0 °F 93% 29.93 in 9.0 mi North 8.1 mph - 0.18 in   Mostly Cloudy